Torna al catalogo

STARLINK-35019

AttivoComunicazioniVLEO
NORAD 65513·PAYLOAD·🇺🇸 United States

Lanciato Sep 5, 2025 da Cape Canaveral Space Force Station

Loading…

Prossimi Passaggi (prossime 24 ore)

TLE

AggiornatoSource: CelesTrak SupGP

Epoca: Sep 14, 2026, 23:01 UTC

1 65513C 25198X   26257.95951389 -.00000306  00000+0 -90363-5 0  2579
2 65513  53.1567 107.7969 0001279  86.5624 336.4563 15.34382634    18

Traccia STARLINK-35019 in tempo reale con AllMySat

Download on the App Store